Precipitable_Water
1.13 1.19 1.34 1.54 1.53 1.51 1.63 1.66 1.55 1.51 1.49 1.49 1.47 1.43 1.38 1.32 1.30 1.32 1.34 1.38 1.35 1.35 1.37 1.36 1.32 1.32 1.29 1.29 1.30 1.29 1.30 1.29 1.30 1.23 1.20 1.17 1.17 1.19 1.24 1.25 1.21 1.15 1.18 1.19 1.22 1.21 1.36 1.43 1.57 1.61 1.65 1.61 1.59 1.62 1.67 1.67 1.65 1.68 1.67 1.64 1.58 1.59 1.55
1.12 1.16 1.38 1.47 1.44 1.38 1.44 1.61 1.62 1.55 1.53 1.51 1.49 1.47 1.44 1.38 1.33 1.28 1.30 1.33 1.35 1.34 1.35 1.36 1.34 1.32 1.31 1.30 1.33 1.36 1.31 1.33 1.33 1.32 1.29 1.27 1.26 1.25 1.27 1.27 1.23 1.20 1.15 1.20 1.28 1.28 1.34 1.43 1.46 1.53 1.57 1.61 1.56 1.60 1.63 1.64 1.64 1.65 1.65 1.63 1.60 1.57 1.56
1.00 1.12 1.24 1.32 1.24 1.22 1.34 1.58 1.62 1.57 1.54 1.53 1.53 1.51 1.47 1.43 1.38 1.29 1.27 1.29 1.32 1.36 1.37 1.35 1.34 1.33 1.34 1.33 1.35 1.35 1.36 1.36 1.35 1.34 1.29 1.28 1.27 1.24 1.28 1.28 1.27 1.23 1.20 1.19 1.26 1.31 1.32 1.40 1.44 1.47 1.51 1.55 1.58 1.59 1.59 1.61 1.62 1.63 1.64 1.65 1.62 1.59 1.56
0.92 1.03 1.12 1.29 1.26 1.31 1.29 1.43 1.49 1.52 1.53 1.54 1.52 1.50 1.50 1.48 1.46 1.41 1.32 1.29 1.27 1.32 1.31 1.34 1.35 1.36 1.35 1.33 1.33 1.36 1.37 1.38 1.38 1.38 1.36 1.35 1.34 1.32 1.29 1.29 1.28 1.26 1.25 1.21 1.21 1.26 1.35 1.40 1.45 1.44 1.44 1.46 1.49 1.53 1.56 1.58 1.64 1.64 1.64 1.64 1.63 1.62 1.59
0.80 0.96 1.10 1.19 1.28 1.36 1.36 1.49 1.56 1.50 1.47 1.52 1.55 1.55 1.53 1.53 1.53 1.49 1.42 1.36 1.31 1.27 1.30 1.30 1.34 1.36 1.37 1.36 1.34 1.35 1.35 1.36 1.39 1.42 1.43 1.41 1.43 1.42 1.35 1.31 1.30 1.24 1.27 1.29 1.24 1.22 1.28 1.37 1.40 1.44 1.43 1.38 1.40 1.43 1.48 1.52 1.56 1.63 1.64 1.62 1.56 1.58 1.57
0.62 0.77 1.00 1.17 1.20 1.32 1.45 1.48 1.54 1.48 1.41 1.44 1.51 1.55 1.58 1.58 1.58 1.53 1.49 1.41 1.34 1.35 1.40 1.40 1.36 1.36 1.31 1.33 1.31 1.33 1.36 1.38 1.41 1.44 1.42 1.43 1.44 1.43 1.40 1.33 1.33 1.29 1.26 1.30 1.31 1.25 1.26 1.28 1.30 1.37 1.39 1.39 1.35 1.35 1.45 1.45 1.47 1.53 1.57 1.59 1.55 1.54 1.52
0.49 0.64 0.82 1.07 1.17 1.29 1.32 1.29 1.45 1.59 1.53 1.44 1.50 1.57 1.60 1.60 1.55 1.54 1.54 1.47 1.41 1.31 1.29 1.30 1.32 1.33 1.30 1.31 1.29 1.31 1.31 1.33 1.38 1.40 1.44 1.44 1.46 1.44 1.43 1.37 1.33 1.33 1.29 1.34 1.29 1.31 1.26 1.25 1.27 1.31 1.33 1.35 1.35 1.32 1.34 1.37 1.40 1.46 1.48 1.50 1.49 1.49 1.47
0.42 0.57 0.72 0.93 1.09 1.16 1.32 1.32 1.27 1.39 1.56 1.57 1.52 1.54 1.56 1.60 1.60 1.58 1.55 1.52 1.47 1.38 1.28 1.25 1.28 1.29 1.28 1.29 1.27 1.27 1.28 1.31 1.35 1.38 1.41 1.40 1.45 1.41 1.42 1.38 1.33 1.35 1.35 1.30 1.33 1.33 1.31 1.27 1.26 1.27 1.29 1.29 1.31 1.32 1.33 1.33 1.33 1.38 1.40 1.41 1.39 1.39 1.43
0.41 0.49 0.66 0.80 1.03 1.17 1.29 1.32 1.26 1.29 1.47 1.55 1.48 1.51 1.52 1.56 1.56 1.55 1.55 1.56 1.52 1.42 1.31 1.26 1.25 1.28 1.28 1.25 1.23 1.24 1.29 1.32 1.33 1.34 1.34 1.35 1.38 1.36 1.38 1.39 1.38 1.37 1.35 1.31 1.33 1.33 1.31 1.34 1.27 1.25 1.28 1.26 1.29 1.28 1.27 1.31 1.31 1.30 1.31 1.33 1.33 1.32 1.34
0.42 0.48 0.56 0.72 0.92 1.06 1.10 1.27 1.36 1.36 1.43 1.50 1.48 1.48 1.51 1.53 1.55 1.56 1.57 1.56 1.54 1.45 1.38 1.33 1.32 1.32 1.29 1.23 1.21 1.23 1.27 1.28 1.32 1.30 1.30 1.30 1.33 1.34 1.34 1.39 1.42 1.40 1.37 1.34 1.32 1.36 1.36 1.35 1.36 1.30 1.25 1.24 1.25 1.27 1.23 1.26 1.29 1.28 1.26 1.25 1.26 1.26 1.26
0.43 0.53 0.61 0.72 0.82 0.94 1.15 1.18 1.32 1.45 1.43 1.50 1.47 1.45 1.49 1.52 1.53 1.56 1.56 1.56 1.54 1.50 1.48 1.42 1.37 1.35 1.33 1.25 1.21 1.22 1.23 1.23 1.27 1.27 1.27 1.26 1.29 1.31 1.34 1.34 1.39 1.43 1.38 1.35 1.28 1.33 1.42 1.39 1.38 1.36 1.29 1.21 1.19 1.22 1.22 1.23 1.25 1.25 1.24 1.24 1.25 1.24 1.23
0.48 0.55 0.62 0.69 0.80 0.90 0.99 1.12 1.26 1.32 1.34 1.40 1.44 1.41 1.44 1.48 1.51 1.54 1.55 1.54 1.55 1.53 1.53 1.48 1.41 1.35 1.34 1.31 1.26 1.22 1.20 1.20 1.21 1.23 1.24 1.23 1.24 1.26 1.29 1.30 1.33 1.39 1.42 1.37 1.29 1.29 1.34 1.42 1.37 1.35 1.34 1.26 1.21 1.20 1.21 1.23 1.24 1.23 1.22 1.22 1.23 1.21 1.20
0.75 0.79 0.67 0.73 0.82 0.90 1.01 1.12 1.08 1.10 1.26 1.35 1.40 1.39 1.43 1.44 1.49 1.53 1.55 1.56 1.59 1.60 1.57 1.54 1.47 1.40 1.36 1.33 1.27 1.23 1.21 1.20 1.18 1.20 1.23 1.22 1.23 1.25 1.26 1.27 1.29 1.34 1.38 1.39 1.33 1.26 1.24 1.33 1.39 1.36 1.34 1.29 1.25 1.21 1.20 1.21 1.22 1.23 1.21 1.21 1.21 1.21 1.18
0.63 0.70 0.96 0.97 0.99 1.18 1.12 1.20 1.18 1.20 1.26 1.37 1.41 1.39 1.41 1.46 1.48 1.53 1.56 1.56 1.60 1.62 1.61 1.59 1.53 1.47 1.42 1.37 1.30 1.25 1.20 1.20 1.20 1.20 1.22 1.25 1.24 1.25 1.26 1.25 1.24 1.29 1.36 1.42 1.35 1.28 1.23 1.25 1.32 1.36 1.33 1.29 1.24 1.23 1.24 1.22 1.21 1.23 1.23 1.19 1.17 1.18 1.18
0.71 0.65 0.70 0.80 0.87 0.97 1.13 1.25 1.33 1.34 1.33 1.38 1.36 1.32 1.33 1.41 1.46 1.50 1.58 1.63 1.65 1.65 1.63 1.62 1.56 1.50 1.49 1.45 1.35 1.29 1.26 1.25 1.26 1.24 1.24 1.27 1.25 1.22 1.23 1.24 1.22 1.26 1.32 1.38 1.37 1.33 1.28 1.25 1.31 1.35 1.30 1.28 1.24 1.22 1.23 1.22 1.19 1.20 1.20 1.16 1.13 1.12 1.12
0.91 0.95 0.87 0.86 1.03 1.01 0.95 1.07 1.14 1.20 1.26 1.28 1.31 1.30 1.31 1.37 1.42 1.45 1.47 1.54 1.60 1.61 1.64 1.64 1.59 1.54 1.52 1.47 1.42 1.40 1.37 1.34 1.30 1.26 1.24 1.24 1.24 1.21 1.22 1.24 1.23 1.23 1.24 1.31 1.34 1.32 1.30 1.26 1.27 1.30 1.32 1.25 1.22 1.20 1.19 1.19 1.18 1.15 1.14 1.14 1.13 1.06 1.05
0.92 0.96 0.93 1.01 1.21 1.14 1.25 1.20 1.15 1.22 1.22 1.23 1.22 1.27 1.31 1.36 1.42 1.44 1.48 1.54 1.58 1.61 1.65 1.64 1.60 1.56 1.51 1.49 1.51 1.50 1.47 1.41 1.38 1.35 1.25 1.23 1.24 1.23 1.23 1.24 1.24 1.22 1.21 1.27 1.31 1.29 1.27 1.23 1.20 1.22 1.29 1.29 1.22 1.17 1.15 1.13 1.12 1.11 1.08 1.08 1.08 1.09 1.04
0.85 0.95 0.94 0.92 1.04 1.17 1.21 1.24 1.23 1.20 1.23 1.27 1.19 1.20 1.27 1.34 1.43 1.46 1.45 1.52 1.54 1.57 1.64 1.65 1.62 1.58 1.57 1.58 1.60 1.58 1.53 1.48 1.44 1.38 1.31 1.28 1.25 1.23 1.21 1.25 1.26 1.23 1.20 1.22 1.26 1.27 1.27 1.19 1.17 1.17 1.21 1.27 1.26 1.21 1.15 1.11 1.10 1.09 1.06 1.03 1.01 1.01 1.04
0.95 0.96 1.01 0.96 0.98 1.17 1.17 1.09 1.22 1.28 1.27 1.34 1.30 1.27 1.22 1.28 1.37 1.43 1.46 1.48 1.53 1.59 1.60 1.61 1.62 1.63 1.63 1.66 1.65 1.62 1.59 1.55 1.48 1.43 1.40 1.33 1.29 1.27 1.25 1.25 1.25 1.23 1.22 1.20 1.26 1.27 1.20 1.17 1.16 1.16 1.17 1.18 1.22 1.22 1.21 1.14 1.12 1.07 1.05 1.00 0.97 0.94 0.97
1.02 1.03 1.00 1.01 1.04 1.03 1.23 1.36 1.39 1.24 1.40 1.44 1.42 1.37 1.32 1.28 1.30 1.37 1.45 1.52 1.59 1.58 1.57 1.59 1.63 1.66 1.65 1.67 1.68 1.67 1.65 1.61 1.56 1.49 1.45 1.42 1.38 1.32 1.26 1.22 1.22 1.23 1.25 1.26 1.29 1.25 1.18 1.18 1.16 1.16 1.14 1.13 1.17 1.18 1.19 1.17 1.14 1.09 1.04 0.99 0.95 0.93 0.94
0.85 0.88 0.88 0.92 0.96 0.96 0.99 1.14 1.24 1.26 1.26 1.16 1.30 1.32 1.39 1.36 1.35 1.39 1.43 1.50 1.56 1.57 1.57 1.58 1.61 1.64 1.65 1.65 1.70 1.72 1.71 1.68 1.64 1.57 1.53 1.49 1.44 1.36 1.26 1.21 1.22 1.24 1.27 1.26 1.25 1.22 1.18 1.16 1.15 1.16 1.14 1.11 1.13 1.17 1.14 1.11 1.17 1.13 1.08 1.02 0.97 0.94 0.95
0.79 0.81 0.82 0.90 0.94 0.98 1.01 1.09 1.20 1.22 1.25 1.32 1.28 1.28 1.31 1.34 1.33 1.34 1.34 1.37 1.42 1.49 1.53 1.56 1.59 1.61 1.64 1.65 1.70 1.72 1.73 1.71 1.68 1.66 1.62 1.54 1.48 1.40 1.30 1.24 1.22 1.21 1.26 1.26 1.28 1.30 1.28 1.22 1.20 1.18 1.15 1.14 1.12 1.10 1.09 1.11 1.15 1.16 1.13 1.07 1.01 0.99 1.00
0.83 0.84 0.86 0.90 0.95 0.98 1.04 1.08 1.17 1.28 1.29 1.28 1.28 1.21 1.25 1.28 1.32 1.30 1.34 1.30 1.36 1.44 1.46 1.50 1.53 1.56 1.59 1.61 1.67 1.71 1.75 1.75 1.71 1.68 1.65 1.59 1.50 1.42 1.36 1.29 1.25 1.25 1.30 1.23 1.22 1.26 1.26 1.22 1.18 1.21 1.20 1.17 1.14 1.07 1.09 1.11 1.11 1.10 1.09 1.05 1.04 1.03 1.05
0.88 0.90 0.91 0.93 0.97 1.02 1.04 1.08 1.19 1.28 1.30 1.31 1.28 1.20 1.19 1.23 1.31 1.29 1.30 1.30 1.28 1.35 1.41 1.43 1.43 1.52 1.58 1.60 1.66 1.71 1.75 1.77 1.75 1.71 1.69 1.63 1.52 1.44 1.41 1.41 1.38 1.30 1.31 1.21 1.17 1.18 1.25 1.27 1.23 1.22 1.22 1.18 1.14 1.11 1.06 1.07 1.13 1.07 1.04 1.03 1.03 1.03 1.03
0.86 0.90 0.94 0.97 0.98 0.98 1.03 1.08 1.18 1.21 1.21 1.18 1.20 1.15 1.10 1.20 1.31 1.29 1.27 1.28 1.28 1.27 1.29 1.33 1.39 1.47 1.52 1.58 1.66 1.73 1.75 1.79 1.78 1.74 1.71 1.65 1.58 1.52 1.45 1.42 1.43 1.41 1.35 1.27 1.23 1.20 1.24 1.31 1.28 1.24 1.24 1.23 1.21 1.17 1.09 1.06 1.12 1.10 1.06 1.03 1.03 1.04 1.08
0.83 0.88 0.93 1.01 1.06 1.10 1.10 1.15 1.16 1.12 1.10 1.08 1.10 1.12 1.04 1.12 1.27 1.29 1.27 1.26 1.30 1.28 1.21 1.24 1.34 1.45 1.57 1.64 1.71 1.76 1.77 1.78 1.74 1.75 1.74 1.70 1.67 1.62 1.55 1.51 1.50 1.48 1.41 1.32 1.25 1.21 1.23 1.28 1.29 1.28 1.28 1.28 1.28 1.26 1.16 1.07 1.11 1.10 1.05 1.04 1.03 1.05 1.10
0.94 0.95 0.95 1.00 1.06 1.12 1.11 1.12 1.14 1.11 1.15 1.22 1.18 1.10 1.04 1.09 1.25 1.28 1.27 1.28 1.29 1.28 1.21 1.24 1.38 1.52 1.63 1.66 1.67 1.72 1.73 1.73 1.74 1.73 1.77 1.79 1.73 1.69 1.62 1.54 1.47 1.47 1.44 1.35 1.28 1.25 1.22 1.21 1.26 1.29 1.31 1.33 1.33 1.30 1.28 1.17 1.12 1.12 1.10 1.07 1.06 1.08 1.12
0.99 1.03 1.08 1.11 1.13 1.13 1.11 1.17 1.16 1.16 1.20 1.27 1.18 1.09 1.05 1.13 1.20 1.26 1.28 1.26 1.24 1.26 1.29 1.37 1.44 1.52 1.59 1.62 1.63 1.68 1.70 1.70 1.74 1.77 1.79 1.82 1.80 1.69 1.57 1.53 1.51 1.48 1.44 1.39 1.32 1.25 1.23 1.22 1.23 1.25 1.29 1.32 1.33 1.33 1.31 1.31 1.20 1.19 1.13 1.11 1.11 1.13 1.15
0.93 0.96 0.99 1.03 1.08 1.15 1.20 1.17 1.13 1.16 1.24 1.23 1.16 1.13 1.09 1.14 1.18 1.22 1.27 1.21 1.22 1.34 1.42 1.45 1.46 1.50 1.55 1.58 1.62 1.65 1.67 1.70 1.71 1.73 1.79 1.78 1.76 1.64 1.51 1.49 1.47 1.46 1.46 1.40 1.36 1.29 1.26 1.27 1.26 1.23 1.24 1.27 1.29 1.34 1.37 1.36 1.33 1.27 1.19 1.18 1.19 1.20 1.21
0.97 1.01 1.06 1.10 1.14 1.15 1.21 1.20 1.20 1.23 1.32 1.25 1.18 1.18 1.17 1.15 1.16 1.20 1.20 1.16 1.28 1.44 1.51 1.49 1.50 1.51 1.53 1.54 1.57 1.62 1.68 1.70 1.70 1.70 1.70 1.68 1.64 1.55 1.47 1.44 1.44 1.44 1.42 1.37 1.33 1.29 1.27 1.30 1.29 1.26 1.22 1.21 1.24 1.28 1.34 1.39 1.37 1.32 1.26 1.24 1.24 1.24 1.27
1.01 1.04 1.08 1.11 1.16 1.23 1.29 1.26 1.25 1.29 1.36 1.31 1.28 1.23 1.20 1.22 1.22 1.22 1.17 1.26 1.39 1.44 1.48 1.49 1.51 1.49 1.50 1.51 1.56 1.62 1.66 1.64 1.57 1.52 1.56 1.57 1.53 1.44 1.41 1.40 1.39 1.34 1.36 1.34 1.29 1.26 1.24 1.24 1.26 1.22 1.19 1.17 1.17 1.22 1.28 1.33 1.38 1.42 1.37 1.35 1.31 1.30 1.30
1.08 1.12 1.15 1.20 1.23 1.31 1.34 1.39 1.37 1.34 1.40 1.44 1.35 1.32 1.30 1.32 1.34 1.27 1.25 1.37 1.42 1.43 1.49 1.53 1.54 1.52 1.53 1.55 1.57 1.57 1.54 1.46 1.48 1.52 1.55 1.53 1.50 1.44 1.40 1.34 1.30 1.27 1.27 1.26 1.22 1.22 1.19 1.19 1.20 1.17 1.14 1.12 1.13 1.15 1.23 1.33 1.36 1.41 1.44 1.42 1.38 1.36 1.34
1.12 1.14 1.16 1.20 1.29 1.38 1.39 1.43 1.42 1.42 1.48 1.55 1.58 1.47 1.42 1.42 1.45 1.45 1.44 1.42 1.44 1.44 1.49 1.55 1.59 1.56 1.58 1.57 1.54 1.53 1.49 1.43 1.47 1.49 1.52 1.50 1.50 1.51 1.49 1.46 1.42 1.38 1.34 1.33 1.29 1.26 1.25 1.25 1.23 1.22 1.22 1.20 1.22 1.27 1.33 1.39 1.46 1.51 1.61 1.58 1.54 1.51 1.50
1.13 1.16 1.22 1.27 1.38 1.45 1.43 1.44 1.48 1.51 1.56 1.60 1.63 1.70 1.67 1.54 1.56 1.60 1.60 1.53 1.47 1.47 1.53 1.57 1.59 1.57 1.59 1.58 1.56 1.51 1.49 1.47 1.48 1.49 1.45 1.48 1.49 1.48 1.49 1.49 1.47 1.41 1.37 1.34 1.33 1.30 1.30 1.30 1.31 1.30 1.31 1.33 1.39 1.45 1.48 1.50 1.55 1.60 1.67 1.67 1.65 1.65 1.65
1.17 1.21 1.25 1.26 1.34 1.48 1.44 1.45 1.48 1.55 1.57 1.61 1.71 1.73 1.70 1.73 1.69 1.67 1.67 1.64 1.57 1.54 1.57 1.57 1.59 1.61 1.63 1.61 1.57 1.51 1.51 1.52 1.50 1.49 1.49 1.50 1.54 1.56 1.54 1.56 1.51 1.48 1.52 1.58 1.58 1.52 1.45 1.41 1.44 1.46 1.50 1.52 1.53 1.52 1.51 1.57 1.60 1.70 1.85 1.88 1.86 1.85 1.80
1.20 1.21 1.24 1.29 1.36 1.48 1.50 1.49 1.52 1.58 1.59 1.59 1.68 1.69 1.67 1.69 1.73 1.82 1.76 1.75 1.68 1.65 1.60 1.59 1.59 1.58 1.62 1.61 1.57 1.52 1.50 1.49 1.47 1.47 1.52 1.54 1.49 1.46 1.52 1.60 1.60 1.57 1.60 1.60 1.59 1.61 1.62 1.66 1.64 1.66 1.65 1.62 1.68 1.73 1.72 1.77 1.89 1.97 2.01 2.03 2.02 2.03 2.00
1.16 1.19 1.25 1.32 1.36 1.46 1.51 1.55 1.59 1.58 1.57 1.63 1.66 1.67 1.76 1.78 1.76 1.83 1.84 1.84 1.79 1.72 1.68 1.68 1.61 1.57 1.60 1.60 1.54 1.55 1.53 1.50 1.48 1.48 1.52 1.57 1.53 1.50 1.50 1.53 1.59 1.62 1.64 1.65 1.68 1.68 1.67 1.69 1.76 1.82 1.87 1.89 1.82 1.90 1.97 2.02 2.06 2.07 2.07 2.07 2.05 2.04 2.05
1.25 1.23 1.29 1.34 1.35 1.42 1.54 1.61 1.62 1.61 1.58 1.59 1.58 1.64 1.69 1.75 1.82 1.82 1.87 1.91 1.90 1.84 1.80 1.74 1.65 1.56 1.58 1.59 1.58 1.62 1.62 1.56 1.57 1.58 1.58 1.61 1.59 1.54 1.52 1.50 1.51 1.56 1.64 1.69 1.75 1.80 1.81 1.82 1.86 1.92 1.96 2.00 1.98 1.96 1.98 2.02 2.05 2.09 2.10 2.10 2.11 2.11 2.09
Wind_Speed
27 27 27 26 25 24 24 24 24 24 24 23 23 23 23 24 25 27 28 29 30 30 30 30 29 29 29 29 28 27 27 26 25 25 24 24 23 22 22 21 20 19 18 17 17 16 16 15 14 13 13 12 11 10 10 9 8 7 6 6 5 5 5
27 27 27 27 25 25 24 24 25 25 24 23 23 24 23 23 24 26 27 29 31 31 30 30 30 30 30 29 29 28 28 27 26 25 25 24 24 23 22 22 21 20 19 18 17 17 17 16 16 15 14 13 12 11 10 10 9 8 7 7 6 6 5
28 28 27 26 26 27 26 25 25 25 25 24 24 24 24 23 24 25 26 28 30 31 31 31 31 30 30 29 29 29 28 28 27 26 25 25 25 24 23 23 22 21 20 20 19 18 18 17 17 16 15 14 13 12 11 10 10 9 8 8 7 6 6
28 28 28 27 27 28 28 26 26 26 25 25 25 25 25 24 24 24 25 27 29 31 31 31 31 31 30 30 29 29 29 28 27 27 26 26 25 25 24 23 23 22 21 21 20 19 18 18 18 17 16 15 14 13 12 11 10 10 9 8 8 7 7
28 28 28 28 28 28 28 27 26 26 26 26 26 25 25 25 24 24 25 26 28 30 31 32 31 31 31 30 29 29 29 29 28 27 27 26 25 25 24 24 24 23 22 21 21 20 19 19 19 18 17 16 15 14 13 13 11 11 10 9 9 8 8
30 29 28 28 28 29 28 27 26 26 26 26 27 26 26 25 25 24 24 25 26 28 30 31 32 31 31 31 30 30 30 29 29 28 28 27 26 26 25 25 24 24 23 22 21 21 21 20 20 19 18 17 16 15 14 14 13 12 11 10 10 9 9
31 30 30 29 29 29 29 28 27 26 25 26 26 27 26 26 25 25 24 24 26 27 29 31 32 32 31 31 31 30 30 30 29 29 28 28 27 27 26 25 25 24 23 23 22 22 22 22 21 20 19 18 17 16 15 14 14 13 12 11 11 10 10
31 31 31 30 30 30 30 29 28 27 26 25 26 27 26 26 26 25 25 24 25 26 28 30 31 31 31 31 31 31 31 30 30 29 29 29 28 27 27 26 25 25 24 23 23 22 22 22 22 21 20 19 18 17 16 15 15 14 13 12 12 11 11
30 31 31 31 30 30 30 30 29 28 27 26 26 27 27 26 26 26 26 25 25 25 27 29 30 30 31 31 32 32 31 31 30 30 30 29 29 28 27 26 26 25 25 24 23 23 23 23 22 22 21 21 19 19 18 17 16 15 14 13 13 12 12
28 30 31 31 31 30 30 31 30 29 28 27 26 27 27 27 26 26 26 25 25 26 27 28 28 29 30 31 32 32 32 31 31 30 30 29 29 29 28 27 26 26 25 25 24 24 24 23 23 23 23 22 21 20 19 18 17 16 15 15 14 13 13
27 28 29 30 31 30 30 30 29 28 28 27 26 27 28 27 27 27 26 26 26 26 26 27 27 28 29 31 32 32 32 32 31 31 30 30 29 29 29 28 27 26 26 26 25 25 24 24 24 24 24 23 23 22 21 19 18 17 17 16 15 15 14
24 27 29 30 30 30 29 29 29 28 28 28 28 28 28 28 28 27 27 27 26 26 26 26 27 28 28 30 31 32 33 32 32 31 31 30 30 29 29 28 27 27 26 26 26 26 25 25 25 25 24 24 24 23 22 21 20 19 18 17 16 16 15
18 21 24 27 28 28 28 28 29 29 29 29 29 29 29 30 29 28 28 27 27 26 26 26 26 27 28 29 30 31 32 33 32 32 31 31 30 29 29 29 28 27 27 27 27 26 26 26 25 25 25 25 25 24 23 22 21 20 19 18 17 16 16
18 19 21 23 25 26 26 27 28 29 29 29 29 29 30 30 31 30 29 28 28 27 27 26 26 26 27 28 29 30 31 32 32 32 31 31 30 30 29 29 29 28 27 27 27 27 27 26 26 26 26 25 25 24 24 23 22 21 20 19 18 17 16
17 18 19 21 24 25 26 27 27 28 28 29 30 30 30 30 31 31 30 29 29 28 27 27 26 27 27 27 28 29 30 30 31 32 32 31 31 30 29 29 29 29 28 27 27 27 27 27 26 26 26 26 25 25 24 23 23 22 21 20 19 18 17
16 16 17 18 20 22 24 26 27 27 28 29 29 30 30 30 31 32 31 31 30 29 28 27 27 27 27 27 28 28 29 29 30 31 32 31 31 31 30 29 29 29 29 28 27 27 27 27 26 26 26 26 25 25 24 24 23 23 22 21 20 19 18
17 18 18 18 17 19 22 24 26 27 27 28 29 30 30 30 31 32 32 32 31 30 29 28 28 27 27 27 27 27 28 29 29 30 31 31 31 31 31 30 30 29 29 29 28 28 27 27 27 26 26 25 25 25 25 24 23 23 23 22 21 20 19
20 21 21 20 19 19 20 22 24 26 27 28 28 29 30 30 31 32 33 33 32 31 30 29 28 28 27 27 27 27 28 28 29 29 30 30 31 31 31 31 30 30 30 29 29 28 28 28 28 27 26 26 25 25 25 24 24 24 23 23 22 21 20
22 22 22 22 21 20 21 22 23 24 25 27 28 29 30 30 30 31 33 33 33 33 32 31 29 29 28 27 27 27 28 28 29 29 29 30 30 30 31 31 31 30 30 30 29 29 29 29 28 28 27 27 26 25 25 25 24 24 24 24 23 23 21
22 22 23 23 23 22 21 22 23 24 25 26 27 29 30 30 30 30 31 32 33 34 33 32 31 30 29 28 27 27 28 28 28 29 29 29 29 30 30 31 31 31 31 30 30 30 30 29 29 29 28 28 27 26 26 25 25 25 25 24 24 24 23
23 23 23 24 24 24 23 23 24 25 25 26 26 28 30 30 30 30 30 31 33 34 34 33 32 31 30 29 28 27 28 28 28 29 29 29 29 29 30 30 31 31 31 30 30 30 30 30 29 29 29 29 28 27 26 26 25 25 26 25 25 24 23
24 25 25 24 24 25 25 25 25 25 26 26 27 27 29 31 31 31 31 31 32 33 34 34 33 32 31 30 29 28 28 29 29 29 29 29 29 29 29 30 30 31 31 30 30 30 30 30 30 29 29 29 29 28 27 26 26 26 26 26 25 24 23
25 26 26 26 26 27 27 27 27 27 27 28 28 29 30 31 32 32 31 31 31 32 33 34 33 33 32 31 30 29 29 29 29 29 28 29 29 29 29 29 30 30 30 30 30 29 29 30 30 29 29 29 29 29 28 27 27 27 27 26 25 24 23
26 26 27 28 28 28 28 28 28 28 28 28 29 30 31 32 33 33 33 32 31 31 32 33 34 33 32 32 31 30 30 30 29 29 28 29 29 30 29 29 29 30 30 30 30 29 29 29 29 29 29 30 30 29 29 28 27 28 28 27 26 25 24
26 27 28 29 29 29 29 30 30 29 29 29 30 31 32 33 34 34 34 33 33 32 32 33 33 33 32 32 32 31 31 30 30 29 29 29 29 30 30 30 30 30 30 30 30 29 28 28 28 29 29 29 29 29 29 29 28 28 28 27 27 26 25
26 28 29 29 30 30 30 30 30 30 30 30 31 32 33 34 35 36 35 34 34 33 32 32 32 32 32 32 32 32 32 31 31 30 29 29 29 29 30 30 30 30 30 30 29 29 28 28 28 28 28 28 28 29 29 29 28 28 28 28 28 27 26
26 28 28 29 30 31 30 31 31 30 30 30 31 33 34 35 37 37 36 36 35 35 34 32 32 31 31 32 33 33 32 32 31 31 30 29 29 29 29 30 30 30 30 30 29 29 29 28 28 28 28 28 28 28 28 29 28 28 28 28 28 27 27
26 26 27 28 30 30 31 31 31 30 30 31 32 33 35 36 38 37 37 37 37 36 34 32 32 31 31 32 32 33 32 31 31 31 30 29 29 29 29 30 30 30 30 29 29 28 28 28 28 28 27 27 27 27 27 28 28 27 27 28 28 28 27
25 26 26 27 28 30 30 30 30 30 29 30 32 33 35 37 38 37 37 37 36 35 34 33 32 32 31 32 32 32 31 31 31 30 29 29 29 30 29 30 30 30 29 29 28 28 28 28 28 27 27 26 26 26 26 26 27 27 27 27 28 27 27
26 26 26 27 28 29 30 30 30 29 29 30 31 33 35 37 37 37 37 36 36 35 34 33 33 32 31 32 32 31 30 30 30 30 29 29 29 29 29 29 29 29 29 29 28 27 27 27 27 27 27 26 26 26 26 25 26 26 27 27 27 27 27
27 26 26 27 28 28 29 29 30 29 28 29 31 32 34 34 35 36 36 36 36 35 34 33 33 32 32 32 31 30 29 29 29 28 27 27 28 28 29 29 29 28 28 28 28 27 27 27 27 26 26 26 25 25 25 25 25 25 26 26 27 27 27
27 26 26 26 27 27 27 27 27 28 27 27 29 30 31 32 33 35 36 36 36 35 34 33 33 32 32 32 31 30 29 28 28 27 26 26 26 27 27 28 28 28 28 27 27 26 26 26 26 25 25 25 25 24 24 24 24 24 24 25 26 26 26
26 25 25 25 25 25 25 25 24 25 25 25 25 27 29 30 31 32 34 35 36 36 35 34 33 32 32 31 30 29 29 28 27 26 25 25 25 26 26 26 27 27 27 26 26 25 25 25 25 25 25 25 24 24 24 24 24 24 24 24 25 25 25
26 25 25 25 24 24 24 24 23 23 24 25 24 24 26 28 29 31 32 34 35 36 35 34 33 32 32 31 30 29 29 28 27 26 25 26 26 25 25 26 26 26 26 26 26 25 25 25 25 25 25 25 25 25 25 25 25 25 25 24 25 25 25
26 25 24 24 23 22 22 23 23 23 24 24 24 23 24 26 27 30 32 33 35 36 35 34 33 33 32 31 31 30 29 28 27 26 26 26 26 25 24 25 26 26 26 26 26 25 25 25 25 25 25 25 25 25 25 25 26 25 25 24 24 25 25
25 25 24 24 23 21 21 22 23 23 23 24 23 23 23 24 26 28 30 32 34 35 36 35 34 33 33 32 31 31 30 29 28 27 27 26 25 25 24 24 24 25 25 26 25 25 25 25 24 25 25 25 25 24 25 25 25 24 24 24 24 24 24
25 25 24 23 22 20 20 20 21 22 23 23 23 22 22 23 25 26 28 30 32 34 36 35 34 34 33 32 31 31 31 30 28 28 28 26 25 25 25 24 24 24 24 24 25 25 25 25 24 24 24 24 24 24 23 23 23 24 24 24 24 24 24
24 24 24 24 22 21 20 19 19 20 22 23 23 23 22 23 24 25 26 28 31 33 35 35 35 34 33 32 31 31 31 30 29 28 28 26 25 25 25 25 25 24 23 23 24 24 24 24 24 24 24 24 24 24 24 23 24 24 24 24 24 24 24
Wind_Direction
215 213 210 210 210 209 210 209 206 205 203 201 202 202 203 204 204 205 205 205 206 208 208 208 209 208 208 208 208 208 209 210 211 211 210 211 211 210 210 211 212 212 210 210 212 212 210 210 208 208 208 207 207 208 207 206 206 206 207 206 206 209 206
215 214 210 210 211 209 211 211 208 205 204 203 203 203 204 204 204 205 205 205 207 208 209 209 210 209 209 209 209 209 210 210 211 211 211 212 213 212 212 212 213 214 213 212 212 213 212 211 211 211 211 210 210 210 210 209 209 208 208 209 208 209 209
216 216 213 210 209 209 211 212 210 206 205 205 204 204 204 204 204 205 205 205 207 208 209 209 210 210 209 209 210 210 210 211 211 211 212 212 213 214 213 214 215 215 216 215 213 213 213 212 213 214 213 213 213 212 212 211 211 210 209 209 208 207 208
216 217 215 210 207 208 210 211 209 207 206 206 206 205 205 204 204 205 205 206 207 209 209 210 210 211 210 209 210 211 211 211 211 212 212 212 213 214 214 215 217 217 217 217 215 214 213 212 213 215 214 214 215 214 213 211 210 211 210 210 211 210 212
217 217 215 211 209 210 210 210 209 208 207 207 207 207 206 205 205 205 205 206 208 209 210 210 211 211 211 210 211 212 212 212 212 212 213 213 213 214 214 215 217 218 217 217 216 215 213 213 215 216 215 215 215 214 213 211 210 211 213 215 217 218 219
219 218 217 214 212 212 211 210 211 210 208 208 207 208 208 207 206 205 206 206 207 208 209 210 211 211 212 211 212 212 213 213 212 212 213 213 214 214 215 216 217 218 218 217 217 216 215 215 216 216 216 216 215 213 212 213 213 214 217 219 221 223 224
219 218 217 215 213 213 211 210 213 214 212 210 208 208 209 208 208 207 206 207 207 207 208 210 211 212 212 212 212 213 213 213 213 213 214 214 215 215 215 216 217 218 218 217 217 216 216 216 217 216 216 216 214 213 213 214 216 218 220 222 224 226 228
218 217 217 216 213 213 212 211 212 215 216 213 209 208 208 209 209 208 207 207 207 208 208 209 210 211 213 213 213 213 214 214 214 214 214 214 215 216 216 217 217 218 218 217 217 217 217 218 217 217 217 215 215 214 214 216 220 221 223 225 227 229 232
216 216 216 215 213 213 213 213 212 213 215 215 211 208 208 210 210 209 209 209 208 208 209 209 210 211 213 214 214 214 214 215 215 215 214 214 215 216 216 217 217 218 218 217 217 217 218 219 218 218 217 217 216 217 218 219 222 224 225 227 230 232 234
215 214 215 215 215 214 213 214 214 213 215 216 213 210 209 210 211 211 211 210 210 210 210 209 209 210 212 213 214 214 214 215 215 215 214 214 215 216 216 217 217 218 218 218 218 218 219 219 219 218 219 219 218 219 221 222 225 227 228 230 232 234 236
214 213 214 214 215 215 212 212 214 214 214 214 213 212 210 210 212 212 212 212 212 211 210 210 210 210 211 213 213 214 214 214 215 215 215 215 216 216 217 217 218 218 219 220 219 219 220 220 220 220 220 221 221 222 224 225 227 229 230 232 234 237 238
212 211 213 212 213 215 214 213 214 214 214 213 214 214 212 211 212 213 213 213 213 212 211 211 211 211 211 212 212 213 214 214 215 215 216 216 216 217 217 218 218 218 219 221 221 220 221 222 222 222 222 223 223 224 225 227 228 230 232 233 235 237 240
210 209 210 209 211 215 215 214 214 215 214 213 214 216 214 212 213 214 214 214 214 213 212 212 212 211 211 212 212 213 215 215 215 216 216 217 217 217 218 219 219 219 219 221 222 222 222 222 224 224 224 224 225 225 226 228 229 231 232 234 235 237 240
212 211 209 208 211 216 216 213 212 213 213 213 215 217 216 214 214 215 215 215 214 214 213 213 212 212 212 212 212 214 215 216 216 216 217 217 217 218 218 219 220 220 220 220 221 222 222 222 224 225 226 226 226 226 227 228 230 231 232 234 236 237 239
212 212 210 209 212 215 216 215 214 213 214 216 217 218 217 216 215 215 215 215 215 215 215 214 214 213 213 213 214 215 215 216 216 217 217 217 218 218 219 220 220 221 221 220 221 223 223 223 223 225 226 227 226 227 228 229 230 232 233 234 235 237 238
213 211 210 209 210 213 215 216 216 215 215 216 217 218 218 218 216 215 215 215 216 217 216 215 214 214 214 214 215 215 215 215 216 217 217 218 219 219 219 220 221 221 222 221 222 223 224 224 224 225 226 227 227 228 229 230 231 232 232 233 235 237 238
218 215 214 212 215 219 219 218 216 215 216 217 217 218 218 218 217 216 215 215 215 217 217 216 215 215 215 215 214 214 215 215 216 216 217 218 219 220 220 220 221 222 222 222 223 224 225 225 224 225 226 227 228 228 229 231 232 231 231 233 234 236 239
224 221 219 217 221 224 224 223 220 217 217 218 218 219 219 219 218 217 216 215 215 216 217 217 217 216 216 215 214 214 215 216 216 217 218 218 219 220 221 221 221 222 223 223 223 224 226 226 225 225 227 228 228 229 230 231 232 231 231 233 235 237 239
227 224 221 221 226 228 226 225 224 223 222 221 220 220 220 219 218 218 217 216 215 215 217 217 217 217 216 216 215 214 216 217 217 217 218 218 220 221 221 221 222 222 223 223 224 225 227 228 227 227 227 228 229 229 230 232 231 231 232 234 236 237 239
227 225 225 227 232 234 231 228 227 228 229 228 224 221 221 221 219 217 217 217 216 215 216 217 218 217 216 216 216 215 216 217 218 218 219 219 219 220 221 222 223 223 224 224 225 226 228 229 229 229 229 229 229 229 231 232 232 231 233 235 236 238 240
229 229 229 230 233 234 234 232 229 228 230 231 230 226 222 221 220 218 217 217 216 216 217 217 218 218 217 217 217 217 217 218 218 219 219 219 220 221 222 222 223 224 225 225 226 227 229 230 230 231 231 231 230 230 231 232 231 231 233 235 237 238 240
233 233 232 232 234 235 234 234 232 231 230 231 232 230 225 222 221 220 218 217 217 216 217 217 218 218 217 217 218 218 219 219 219 220 220 220 221 222 223 223 223 224 225 226 226 228 229 230 231 231 232 232 232 231 232 233 232 231 233 235 236 238 239
235 236 235 234 235 236 235 235 235 235 234 232 232 231 228 223 221 220 219 218 217 216 216 217 218 218 218 218 218 219 220 221 221 221 221 221 222 223 224 224 224 224 225 226 227 228 229 230 231 231 232 232 233 233 234 234 233 232 234 235 236 237 239
238 237 237 237 237 237 237 238 237 236 236 236 234 231 229 225 221 220 219 218 217 216 216 217 218 219 218 219 219 220 221 222 223 223 223 223 224 224 225 225 225 225 226 227 227 228 229 229 230 231 232 233 234 234 234 235 234 233 234 235 235 236 238
240 239 239 239 238 237 238 240 239 238 239 239 235 231 228 225 221 219 219 219 218 216 216 217 219 219 220 220 219 220 221 222 223 225 225 225 226 226 226 226 226 226 227 227 228 228 229 230 230 231 231 232 233 234 234 235 235 234 234 235 235 236 237
242 241 241 240 239 239 240 241 240 239 239 238 234 230 228 225 222 219 219 219 218 217 217 218 219 220 220 220 219 219 221 223 224 226 227 227 227 227 227 227 227 226 227 228 228 228 229 230 231 231 232 232 232 232 233 235 236 235 234 234 235 235 236
243 242 240 240 240 240 241 241 240 240 240 237 232 229 226 224 222 220 219 219 219 219 218 218 219 220 220 219 219 219 221 223 225 226 227 228 229 228 228 228 227 227 227 228 228 229 229 230 231 232 232 232 232 232 233 235 236 236 235 235 235 235 236
244 243 241 241 240 240 241 241 241 241 239 235 231 227 225 224 222 220 219 219 220 220 219 219 219 220 220 219 219 219 220 222 224 226 228 229 229 229 229 228 227 227 227 227 228 228 229 229 230 232 232 232 233 233 233 234 235 235 235 235 235 235 236
242 243 242 242 241 242 242 242 241 242 240 235 230 226 224 223 222 221 220 220 220 221 220 218 218 219 220 219 219 219 219 221 223 226 228 229 229 229 228 226 226 226 226 227 227 228 228 229 229 231 232 232 232 233 234 234 235 234 234 235 235 235 236
242 243 243 243 242 242 243 242 242 241 239 235 230 226 224 223 222 220 220 219 219 220 219 217 217 218 219 218 218 217 218 220 223 225 227 228 228 227 226 224 224 225 226 226 227 227 227 228 228 229 230 231 232 233 234 234 235 234 233 234 235 236 236
243 243 244 244 242 241 241 241 240 238 236 234 229 225 223 222 220 218 218 218 218 219 217 215 215 216 217 217 216 215 216 219 221 224 225 225 225 224 223 222 223 224 225 225 225 225 226 227 227 228 229 229 231 232 233 233 234 234 233 233 234 236 236
242 243 243 243 242 239 238 239 236 233 232 232 227 222 220 220 218 217 216 216 216 216 215 213 214 215 215 215 214 214 215 217 218 220 221 220 220 220 219 220 220 221 222 222 223 223 224 225 226 226 227 228 229 231 231 231 232 233 233 233 234 236 237
241 242 242 242 241 238 235 235 233 229 227 227 224 219 218 217 215 214 214 213 213 213 212 211 212 213 213 213 212 213 215 215 216 218 219 218 217 217 218 218 219 219 220 220 220 221 223 224 224 225 226 227 228 229 230 231 231 232 233 233 235 237 238
240 241 240 240 239 236 232 230 229 226 222 221 221 219 217 215 213 212 211 211 211 210 210 210 210 211 211 211 212 213 214 214 215 217 218 218 217 218 219 220 221 222 222 222 223 223 224 225 226 227 228 229 230 230 231 231 232 233 234 234 235 237 238
237 238 237 236 236 235 231 227 225 224 220 218 218 219 216 214 213 212 211 210 210 208 208 208 209 209 210 210 212 213 213 214 215 217 218 218 218 219 222 223 224 225 225 226 227 227 228 228 229 229 230 231 231 231 231 232 233 234 235 235 235 236 237
234 235 234 233 233 233 231 227 223 221 218 216 215 215 215 214 214 212 211 210 210 208 206 207 208 209 209 211 213 213 214 215 217 218 219 219 218 220 223 224 226 227 227 227 229 229 229 230 230 230 230 230 231 232 233 234 234 234 234 234 234 235 237
230 232 232 230 229 230 230 228 223 217 215 214 212 211 211 212 212 211 209 209 208 207 206 207 209 209 210 213 214 214 214 217 218 218 220 221 220 221 223 224 225 227 227 227 227 227 228 229 230 230 230 230 230 232 234 234 233 233 234 234 234 235 237
225 227 228 227 227 228 227 227 223 215 212 212 211 209 209 210 210 209 208 208 208 207 207 207 209 210 212 213 215 215 215 217 219 219 220 222 222 221 222 223 223 224 225 225 225 225 226 227 229 230 230 230 229 231 233 234 234 234 234 234 235 236 237